Find EXO-0

NORAD ID: 59175 Int'l Des: 2023-174 Owner: EXOTR Country: F operational
LEOCIRCULARRETROGRADESSO

Live Position

Loading 3D Globe...

About EXO-0

Description loading...

Upcoming Passes

Passes for default location (London). Set your location on the main map for personalized predictions.

Altitude History

Loading altitude history...

Two-Line Element Set

1 59175U 23174DK 26106.49778044 .00005372 00000-0 16744-3 0 9994
2 59175 97.3836 186.6533 0009724 39.2410 320.9536 15.33634645135588
Epoch: Apr 16, 2026 • Age: 12 hours

Current Status

Altitude 478.0 km
Velocity 7.62 km/s
Sub-Earth Point -16.98°S, 163.31°E
Launch Date Nov 11, 2023
Age 2.4 years
Type other

Technical Details

Classification Payload
Mass 20.00 kg
Dry Mass 20.00 kg
Total Mass 20.00 kg
Length 0.40 m
Diameter 0.10 m
Span 0.40 m
Shape Box
Manufacturer ENDUR
Bus Type Cubesat 8U
Phase Status In Orbit
Owner/State EXOTR/F

Most Searched